Regional Weather Roundup
Issued by NWS Midland/Odessa, TX

Home | Current Version | Previous Version | Text Only | Print | Product List | Glossary On
Versions: 1 2 3 4 5 6 7 8 9 10 11 12 13 14 15 16 17 18 19 20 21 22 23 24 25 26 27 28 29 30 31 32 33 34 35 36 37 38 39 40 41 42 43 44 45 46 47 48 49 50
000
ASUS44 KMAF 111401
RWRMAF
MIDLAND AREA WEATHER ROUNDUP
NATIONAL WEATHER SERVICE MIDLAND TX
800 AM CST SUN DEC 11 2016

...IN SOUTHWEST TEXAS AND SOUTHEAST NEW MEXICO...

CITY           SKY/WX    TMP DP  RH WIND       PRES   REMARKS
ALPINE         CLOUDY    53  39  58 SW21G26   30.08S
ANDREWS        FAIR      52  39  61 SW14      29.89S
ARTESIA        CLOUDY    55  32  41 W20G26    29.88S
BIG SPRING     PTCLDY    43  42  95 S12       29.92S WCI  37
CARLSBAD       CLOUDY    60  33  36 W31       29.86S
DRYDEN           N/A     41  41 100 CALM      30.01S
FORT STOCKTON  NOT AVBL
GUAD PASS      CLOUDY    47  34  60 SW37G47   29.99S WCI  37
HOBBS          CLEAR     41  37  87 S7        29.90S WCI  36
MARFA          CLOUDY    32  32 100 SE3       30.09S FOG
MIDLAND AIRPK  CLOUDY    45  41  85 SW5       29.92S
MIDLAND INTL   CLOUDY    44  40  85 SW8       29.91R WCI  39
ODESSA         CLOUDY    44  39  82 SW9       29.92R WCI  39
PECOS          CLOUDY    38  36  92 E5        29.93S WCI  34
PRESIDIO       FAIR      41  38  91 N3        30.08R
SEMINOLE       CLOUDY    43  38  84 SW13      29.89F WCI  36
SNYDER         FOG       38  38  99 S6        29.89S VSB<1/4 WCI  33
WINK           CLOUDY    37  37 100 S8        29.91S WCI  31
$$
...OTHER STATIONS IN TEXAS...

CITY           SKY/WX    TMP DP  RH WIND       PRES   REMARKS
ABILENE        CLOUDY    52  49  89 S22G35    29.89S
AMARILLO       CLOUDY    49  31  49 W12       29.74R
AUSTIN         DRZL/FOG  54  54 100 S9        30.02F VSB 1/4
BROWNSVILLE    PTCLDY    54  52  93 NW7       30.11R
CORPUS CHRISTI CLOUDY    55  55 100 CALM      30.08S FOG
DALLAS FTW     LGT RAIN  50  48  93 S17G25    29.92F FOG
DEL RIO        CLOUDY    47  47 100 SE5       30.04F FOG
EL PASO        MOCLDY    54  30  40 S12       30.04S
HOUSTON INT    LGT RAIN  65  60  84 S8        30.08R
LUBBOCK        CLOUDY    45  36  70 SW13      29.80R WCI  39
SAN ANGELO     CLOUDY    50  47  89 SW18G26   29.96R
SAN ANTONIO    DRZL/FOG  52  51  97 CALM      30.04F VSB 1/2
WACO           CLOUDY    54  54 100 S14       29.99F FOG
WICHITA FALLS  NOT AVBL
$$
...OTHER LOCATIONS IN NEW MEXICO...

CITY           SKY/WX    TMP DP  RH WIND       PRES   REMARKS
ALAMAGORDO     NOT AVBL
ALBUQUERQUE    CLOUDY    38  27  64 S6        30.03R WCI  33
CANNON AFB     NOT AVBL
CLOVIS         CLOUDY    46  28  49 W21       29.82R WCI  39
HOLLOMAN AFB   NOT AVBL
ROSWELL        CLOUDY    28  24  85 N3        29.89R
RUIDOSO        CLOUDY    45  18  33 NE3       29.99R
SANTA FE       CLOUDY    32  25  75 CALM      29.99R
TRUTH OR CONSE PTCLDY    37  27  67 CALM      30.04R
TUCUMCARI      CLOUDY    51  30  44 W17       29.78R
$$



USA.gov is the U.S. government's official web portal to all federal, state and local government web resources and services.